Location: Crescent
(42.8242°N, 73.7329°W)
Time: 06:02:59
(UTC+00:00)

Tiros 1 - Pass Details

Date: 23 February 2026
Orbit: 618 x 649 km, 48.4° (Epoch: 5 March)

Event Time Altitude Azimuth Distance (km) Brightness Sun altitude
Rises 18:24:44 0° 286° (WNW) 2,893 10.6 34.7°
Reaches altitude 10° 18:27:41 10° 268° (W) 1,980 10.1 34.5°
Maximum altitude 18:30:41 18° 226° (SW) 1,536 10.5 34.3°
Drops below altitude 10° 18:33:42 10° 184° (S) 1,970 10.8 34.0°
Sets 18:36:37 0° 165° (SSE) 2,871 11.1 33.8°
